Regional Weather Roundup
Issued by NWS Albany, NY

Home | Current Version | Previous Version | Text Only | Print | Product List | Glossary On
Versions: 1 2 3 4 5 6 7 8 9 10 11 12 13 14 15 16 17 18 19 20 21 22 23 24 25 26 27 28 29 30 31 32 33 34 35 36 37 38 39 40 41 42 43 44 45 46 47 48 49 50
000
ASUS41 KALY 271110
RWRALY

NEW YORK STATE HOURLY WEATHER ROUNDUP
NATIONAL WEATHER SERVICE ALBANY NY
600 AM EST FRI FEB 27 2015

NOTE: "FAIR" INDICATES FEW OR NO CLOUDS BELOW 12,000 FEET WITH NO
SIGNIFICANT WEATHER AND/OR NO OBSTRUCTIONS TO VISIBILITY.

NYZ032-033-038>043-046>054-057>066-NYZ062>081-271200-
EAST


CITY           SKY/WX    TMP DP  RH WIND       PRES   REMARKS
ALBANY         MOCLDY     6  -4  63 N7        30.33R WCI  -6
GLENS FALLS    CLEAR     -8 -13  78 CALM      30.32R
POUGHKEEPSIE   CLEAR      3  -2  79 CALM      30.30R
NEWBURGH       PTCLDY     9   1  72 CALM      30.27R
MONTGOMERY     MOCLDY    -1  -5  82 CALM      30.28R
WHITE PLAINS   CLOUDY    13   1  59 NW7       30.25R WCI   3
ISLIP          MOCLDY    19   7  59 N8        30.26R WCI   9
NEW YORK CITY  CLOUDY    20   7  57 NW9       30.29R WCI   9
CENTRAL PARK   MOCLDY    19   3  49 VRB5      30.31R WCI  12
$$

NYZ005>009-017-018-044>046-055-056-271200-
CENTRAL


CITY           SKY/WX    TMP DP  RH WIND       PRES   REMARKS
FULTON         CLEAR     -1  -5  82 S3        30.32R
SYRACUSE       FLURRIES   5  -1  76 CALM      30.30R
ROME           CLOUDY    -6 -11  79 CALM      30.34R
ELMIRA         CLEAR     -5  -8  87 CALM      30.31R
BINGHAMTON     PTCLDY     2  -1  88 W5        30.21R WCI  -8
MONTICELLO     CLEAR      5   0  78 NW8       30.20R WCI  -8
$$

NYZ026>034-041>043-271200-
NORTH


CITY           SKY/WX    TMP DP  RH WIND       PRES   REMARKS
WATERTOWN      PTCLDY   -15 -20  78 E6        30.33R WCI -29
FORT DRUM      NOT AVBL
MASSENA        PTCLDY   -17 -21  82 CALM      30.35R
SARANAC LAKE   CLEAR    -21 -26  77 CALM      30.14R
PLATTSBURGH    CLEAR     -9 -13  83 CALM      30.31R
$$

NYZ001>004-010>016-019>021-271200-
WEST


CITY           SKY/WX    TMP DP  RH WIND       PRES   REMARKS
NIAGARA FALLS  PTCLDY    -5 -10  79 W3        30.37R
BUFFALO        PTCLDY     5  -1  76 W5        30.36R WCI  -4
DUNKIRK        CLOUDY    -4  -7  87 CALM      30.39R
JAMESTOWN      CLEAR      0  -4  85 CALM      30.24R
WELLSVILLE     CLOUDY     1  -4  79 W5        30.20R WCI  -9
ROCHESTER      PTCLDY     2  -2  83 SW8       30.34R WCI -12
PENN YAN       CLOUDY     5  -1  76 SW7       30.30R WCI  -7
$$

             KEY
       WCI = WIND CHILL INDEX
       VSB = VISIBILITY
       HX  = HEAT INDEX
$$


USA.gov is the U.S. government's official web portal to all federal, state and local government web resources and services.